This is the latest recevied weather packets stored in our database for station/object EA2KR-10. If no packets are shown the sender has not sent any weather packets the latest 10 day(s).
| Time | Temp. | Humidity | Pressure | Rain* | Wind** | Luminosity | Snow |
|---|---|---|---|---|---|---|---|
| 1788455009 | 47.78° C | 14% | 1034.3 hPa | - | - | - | - |
| 1788453209 | 48.89° C | 14% | 1034.4 hPa | - | - | - | - |
| 1788451409 | 48.89° C | 14% | 1034.4 hPa | - | - | - | - |
| 1788449609 | 48.89° C | 14% | 1034.5 hPa | - | - | - | - |
| 1788447809 | 48.33° C | 15% | 1034.6 hPa | - | - | - | - |
| 1788446008 | 47.78° C | 16% | 1034.7 hPa | - | - | - | - |
| 1788444208 | 46.67° C | 17% | 1034.8 hPa | - | - | - | - |
| 1788442408 | 46.11° C | 19% | 1035.1 hPa | - | - | - | - |
| 1788440608 | 45° C | 20% | 1035.4 hPa | - | - | - | - |
| 1788438808 | 43.33° C | 22% | 1035.6 hPa | - | - | - | - |
| 1788437007 | 41.11° C | 24% | 1035.8 hPa | - | - | - | - |
| 1788435207 | 39.44° C | 26% | 1036.2 hPa | - | - | - | - |
| 1788433407 | 37.22° C | 29% | 1036.2 hPa | - | - | - | - |
| 1788431607 | 35° C | 31% | 1036.4 hPa | - | - | - | - |
| 1788429807 | 33.33° C | 34% | 1036.5 hPa | - | - | - | - |
| 1788428007 | 31.11° C | 36% | 1036.5 hPa | - | - | - | - |
| 1788426207 | 28.89° C | 38% | 1036.5 hPa | - | - | - | - |
| 1788424407 | 27.22° C | 39% | 1036.3 hPa | - | - | - | - |
| 1788422606 | 25.56° C | 40% | 1036.2 hPa | - | - | - | - |
| 1788420806 | 24.44° C | 41% | 1036.3 hPa | - | - | - | - |
| 1788419006 | 23.33° C | 41% | 1036.1 hPa | - | - | - | - |
| 1788417210 | 22.78° C | 41% | 1035.9 hPa | - | - | - | - |
| 1788415410 | 22.22° C | 41% | 1035.8 hPa | - | - | - | - |
| 1788413610 | 22.78° C | 41% | 1035.8 hPa | - | - | - | - |
| 1788411809 | 22.78° C | 40% | 1035.5 hPa | - | - | - | - |
* Rain since midnight (hover to see other rain measurements)
** Current wind speed in m/s (hover to see current wind gust speed)